Location: �clusier
(49.9361°N, 2.7869°E)
Time: 06:32:30
(UTC+00:00)

ATLAS CENTAUR R/B - Pass Details

Date: 26 October 2021
Orbit: 452 x 688 km, 64.7° (Epoch: 06 December)

Event Time Altitude Azimuth Distance (km) Brightness Sun altitude
Exits shadow 03:57:50 19° 353° (N) 1,424 3.4 -24.8°
Drops below altitude 10° 04:00:14 10° 23° (NNE) 1,982 4.5 -24.4°
Sets 04:03:05 0° 40° (NE) 2,937 5.8 -23.9°
